period_start,C,m1,H,J0,J1,J2,J3,J4,J5,JA,JB,JC,JD,JJ,JK,JN,#
2015-02-25 00:02:53,0.32,7.36,0.00,21.52,27.05,29.33,4.84,28.78,1018.28,2028.02,1504.60,1848.70,2006.67,349.92,349.77,27.65,0000 0000 0000 0000 000000
2015-02-25 00:07:55,0.31,7.36,0.00,21.55,27.05,29.42,4.78,29.00,1018.14,2028.01,1503.33,1847.59,2005.48,349.92,349.89,27.68,0000 0000 0000 0000 000000
2015-02-25 00:12:56,0.32,7.38,0.00,21.54,27.05,29.43,4.88,28.85,1018.11,2028.01,1501.88,1846.47,2004.30,349.82,349.87,27.71,0000 0000 0000 0000 000000
2015-02-25 00:17:57,0.33,7.38,0.00,21.55,27.05,29.50,4.87,28.99,1018.09,2028.02,1500.50,1845.40,2003.08,350.19,350.17,27.74,0000 0000 0000 0000 000000
2015-02-25 00:22:59,0.31,7.40,0.00,21.56,27.05,29.66,4.84,29.07,1018.08,2028.04,1499.07,1844.22,2001.86,349.89,349.79,27.77,0000 0000 0000 0000 000000
2015-02-25 00:28:00,0.32,7.40,0.00,21.60,27.04,29.82,4.88,28.96,1018.08,2028.01,1497.76,1843.12,2000.67,349.89,349.87,27.80,0000 0000 0000 0000 000000
2015-02-25 00:33:01,0.35,7.41,0.00,21.56,27.03,29.87,4.84,29.18,1018.08,2028.06,1496.40,1841.95,1999.47,350.20,350.18,27.83,0000 0000 0000 0000 000000
2015-02-25 00:38:03,0.32,7.42,0.00,21.55,27.03,29.91,4.84,29.18,1018.08,2028.08,1495.03,1840.81,1998.15,349.69,349.65,27.86,0000 0000 0000 0000 000000
2015-02-25 00:43:04,0.35,7.43,0.00,21.51,27.02,29.95,4.87,29.18,1018.07,2028.03,1493.57,1839.69,1996.89,350.21,350.24,27.89,0000 0000 0000 0000 000000
2015-02-25 00:48:05,0.33,7.44,0.00,21.54,27.02,30.08,4.82,29.34,1018.08,2028.06,1492.29,1838.54,1995.71,349.81,349.65,27.92,0000 0000 0000 0000 000000
2015-02-25 00:53:06,0.33,7.46,0.00,21.53,27.02,30.06,4.84,29.07,1018.10,2028.17,1491.09,1837.53,1994.53,349.96,350.06,27.95,0000 0000 0000 0000 000000
2015-02-25 00:58:08,0.31,7.46,0.00,21.46,27.02,30.02,4.88,28.89,1018.36,2028.24,1489.86,1836.52,1993.42,349.80,350.07,27.98,0000 0000 0000 0000 000000
2015-02-25 01:03:09,0.26,7.47,0.00,21.45,27.02,29.99,4.88,28.75,1018.56,2028.18,1488.72,1835.47,1992.30,349.78,350.02,28.01,0000 0000 0000 0000 000000
2015-02-25 01:08:10,0.30,7.48,0.00,21.44,27.01,29.97,4.88,28.76,1018.44,2028.22,1487.60,1834.46,1991.16,350.03,350.16,28.04,0000 0000 0000 0000 000000
2015-02-25 01:13:11,0.32,7.49,0.00,21.37,27.00,29.95,4.89,28.70,1018.49,2028.32,1486.42,1833.51,1990.02,350.24,350.43,28.06,0000 0000 0000 0000 000000
2015-02-25 01:18:12,0.26,7.50,0.00,21.34,27.00,29.91,4.93,28.81,1018.51,2028.27,1485.17,1832.42,1988.84,350.23,350.59,28.09,0000 0000 0000 0000 000000
2015-02-25 01:23:13,0.32,7.51,0.00,21.34,27.00,29.86,4.84,28.77,1018.53,2028.29,1483.92,1831.38,1987.78,349.77,350.09,28.12,0000 0000 0000 0000 000000
2015-02-25 01:28:15,0.34,7.52,0.00,21.32,27.00,29.76,4.91,28.88,1018.36,2028.29,1482.66,1830.39,1986.63,350.43,350.79,28.15,0000 0000 0000 0000 000000
2015-02-25 01:33:16,0.31,7.53,0.00,21.33,26.99,29.75,4.89,28.93,1018.26,2028.37,1481.41,1829.35,1985.58,350.37,350.33,28.18,0000 0000 0000 0000 000000
2015-02-25 01:38:18,0.28,7.54,0.00,21.37,26.97,29.76,4.80,28.72,1018.45,2028.44,1480.27,1828.33,1984.51,349.99,350.31,28.21,0000 0000 0000 0000 000000
2015-02-25 01:43:19,0.29,7.54,0.00,21.29,26.97,29.77,4.83,28.78,1018.56,2028.42,1479.02,1827.32,1983.51,349.84,350.30,28.24,0000 0000 0000 0000 000000
2015-02-25 01:48:20,0.35,7.55,0.00,21.34,26.97,29.84,4.84,28.88,1018.45,2028.63,1477.82,1826.38,1982.56,350.05,350.46,28.27,0000 0000 0000 0000 000000
2015-02-25 01:53:22,0.33,7.56,0.00,21.29,26.96,29.71,4.86,28.82,1018.13,2028.80,1476.67,1825.41,1981.49,349.97,350.21,28.30,0000 0000 0000 0000 000000
2015-02-25 01:58:23,0.27,7.57,0.00,21.31,26.95,29.79,4.86,28.86,1018.08,2028.81,1475.48,1824.45,1980.43,349.91,350.10,28.33,0000 0000 0000 0000 000000
2015-02-25 02:03:24,0.30,7.58,0.00,21.38,26.95,29.80,4.84,28.93,1018.08,2028.80,1474.31,1823.47,1979.41,349.73,349.75,28.36,0000 0000 0000 0000 000000
2015-02-25 02:08:26,0.30,7.59,0.00,21.38,26.95,29.76,4.92,28.97,1018.07,2028.81,1473.01,1822.38,1978.24,349.65,349.80,28.39,0000 0000 0000 0000 000000
2015-02-25 02:13:27,0.29,7.60,0.00,21.35,26.95,29.86,4.85,28.94,1018.08,2028.90,1471.92,1821.46,1977.25,349.69,349.99,28.42,0000 0000 0000 0000 000000
2015-02-25 02:18:29,0.30,7.61,0.00,21.44,26.94,29.91,4.81,29.00,1017.88,2028.90,1470.81,1820.46,1976.21,350.18,350.27,28.45,0000 0000 0000 0000 000000
2015-02-25 02:23:30,0.32,7.62,0.00,21.41,26.93,29.92,4.94,29.00,1017.60,2028.94,1469.51,1819.43,1975.13,350.31,350.08,28.48,0000 0000 0000 0000 000000
2015-02-25 02:28:31,0.28,7.62,0.00,21.45,26.93,29.89,4.85,29.05,1017.58,2028.96,1468.41,1818.50,1974.03,349.45,349.26,28.50,0000 0000 0000 0000 000000
2015-02-25 02:33:33,0.28,7.63,0.00,21.43,26.93,29.97,4.87,29.05,1017.51,2028.98,1467.21,1817.49,1973.01,350.29,349.96,28.53,0000 0000 0000 0000 000000
2015-02-25 02:38:34,0.30,7.64,0.00,21.43,26.92,29.98,4.88,29.15,1017.36,2028.97,1465.99,1816.54,1971.88,350.76,350.46,28.56,0000 0000 0000 0000 000000
2015-02-25 02:43:35,0.34,7.65,0.00,21.43,26.92,29.98,4.82,29.11,1017.15,2028.95,1464.70,1815.48,1970.71,349.44,349.12,28.59,0000 0000 0000 0000 000000
2015-02-25 02:48:37,0.29,7.66,0.00,21.43,26.92,29.98,4.81,29.15,1017.16,2028.97,1463.61,1814.47,1969.64,350.04,349.76,28.62,0000 0000 0000 0000 000000
2015-02-25 02:53:38,0.29,7.67,0.00,21.45,26.92,29.99,4.89,29.05,1017.44,2028.98,1462.43,1813.48,1968.59,350.19,349.99,28.65,0000 0000 0000 0000 000000
2015-02-25 02:58:39,0.27,7.68,0.00,21.38,26.92,30.00,4.87,28.82,1017.59,2028.99,1461.28,1812.52,1967.53,349.84,349.76,28.68,0000 0000 0000 0000 000000
2015-02-25 03:03:40,0.28,7.69,0.00,21.34,26.92,29.91,4.79,28.91,1017.59,2028.97,1460.01,1811.50,1966.42,349.33,349.15,28.71,0000 0000 0000 0000 000000
2015-02-25 03:08:42,0.35,7.69,0.00,21.41,26.92,29.90,4.84,28.76,1017.59,2028.99,1458.72,1810.47,1965.30,350.41,350.28,28.74,0000 0000 0000 0000 000000
2015-02-25 03:13:43,0.29,7.70,0.00,21.35,26.92,29.98,4.81,28.87,1017.58,2028.98,1457.49,1809.46,1964.18,349.44,349.40,28.77,0000 0000 0000 0000 000000
2015-02-25 03:18:44,0.28,7.71,0.00,21.36,26.92,29.89,4.84,28.93,1017.55,2028.98,1456.23,1808.43,1963.02,349.72,349.67,28.80,0000 0000 0000 0000 000000
2015-02-25 03:23:46,0.30,7.72,0.00,21.34,26.92,29.87,4.92,28.88,1017.51,2028.99,1454.96,1807.44,1961.94,349.32,349.35,28.83,0000 0000 0000 0000 000000
2015-02-25 03:28:47,0.35,7.73,0.00,21.41,26.92,29.88,4.83,29.02,1017.27,2028.98,1453.67,1806.33,1960.78,349.97,349.99,28.86,0000 0000 0000 0000 000000
2015-02-25 03:33:48,0.31,7.74,0.00,21.38,26.92,29.93,4.87,29.19,1017.15,2028.99,1452.43,1805.29,1959.68,350.16,349.69,28.88,0000 0000 0000 0000 000000
2015-02-25 03:38:50,0.32,7.75,0.00,21.40,26.92,29.89,4.86,29.20,1017.07,2028.99,1451.04,1804.29,1958.52,350.28,349.99,28.91,0000 0000 0000 0000 000000
2015-02-25 03:43:51,0.35,7.76,0.00,21.45,26.92,29.90,4.88,29.12,1016.85,2028.98,1449.63,1803.09,1957.26,350.51,350.06,28.94,0000 0000 0000 0000 000000
2015-02-25 03:48:52,0.31,7.77,0.00,21.44,26.92,29.92,4.82,29.27,1016.67,2028.99,1448.21,1801.98,1956.08,349.71,349.27,28.97,0000 0000 0000 0000 000000
2015-02-25 03:53:53,0.31,7.78,0.00,21.46,26.92,30.02,4.89,29.27,1016.80,2028.99,1446.94,1800.94,1954.88,349.93,349.50,29.00,0000 0000 0000 0000 000000
2015-02-25 03:58:54,0.39,7.79,0.00,21.47,26.92,29.98,4.86,29.24,1017.07,2028.99,1445.61,1799.82,1953.65,350.09,349.79,29.03,0000 0000 0000 0000 000000
2015-02-25 04:03:56,0.34,7.80,0.00,21.48,26.92,29.99,4.86,29.43,1016.97,2028.99,1444.25,1798.67,1952.44,349.97,349.62,29.06,0000 0000 0000 0000 000000
2015-02-25 04:08:57,0.32,7.81,0.00,21.49,26.92,30.01,4.79,29.40,1016.87,2028.99,1442.93,1797.62,1951.27,349.99,349.51,29.09,0000 0000 0000 0000 000000
2015-02-25 04:13:58,0.36,7.82,0.00,21.43,26.92,30.04,4.82,29.48,1016.90,2028.99,1441.59,1796.47,1949.92,349.86,349.47,29.12,0000 0000 0000 0000 000000
2015-02-25 04:18:59,0.33,7.83,0.00,21.48,26.92,30.06,4.82,29.45,1016.87,2028.99,1440.25,1795.37,1948.70,350.23,349.88,29.15,0000 0000 0000 0000 000000
2015-02-25 04:24:00,0.36,7.84,0.00,21.46,26.92,30.02,4.84,29.50,1016.86,2028.99,1438.76,1794.19,1947.51,350.00,349.50,29.18,0000 0000 0000 0000 000000
2015-02-25 04:29:02,0.33,7.85,0.00,21.42,26.92,29.98,4.87,29.33,1016.87,2028.99,1437.45,1793.08,1946.31,349.96,349.45,29.21,0000 0000 0000 0000 000000
2015-02-25 04:34:03,0.31,7.86,0.00,21.48,26.92,30.02,4.90,29.22,1016.90,2028.99,1436.13,1792.03,1945.06,350.60,350.09,29.24,0000 0000 0000 0000 000000
2015-02-25 04:39:05,0.37,7.87,0.00,21.52,26.92,30.01,4.89,29.23,1016.95,2028.99,1434.73,1790.93,1943.77,349.92,349.35,29.27,0000 0000 0000 0000 000000
2015-02-25 04:44:06,0.32,7.88,0.00,21.53,26.92,30.06,4.85,29.12,1017.07,2028.99,1433.54,1789.90,1942.53,350.20,349.69,29.29,0000 0000 0000 0000 000000
2015-02-25 04:49:07,0.31,7.89,0.00,21.55,26.92,30.02,4.95,29.07,1017.02,2028.99,1432.33,1788.84,1941.39,350.74,350.18,29.32,0000 0000 0000 0000 000000
2015-02-25 04:54:08,0.35,7.90,0.00,21.56,26.92,30.04,4.90,29.02,1016.98,2028.99,1430.94,1787.74,1940.15,349.93,349.75,29.35,0000 0000 0000 0000 000000
2015-02-25 04:59:10,0.37,7.91,0.00,21.61,26.92,30.03,4.80,28.87,1016.82,2028.99,1429.62,1786.59,1938.87,349.92,349.56,29.38,0000 0000 0000 0000 000000
2015-02-25 05:04:11,0.32,7.92,0.00,21.60,26.92,30.07,4.86,29.09,1016.67,2028.98,1428.39,1785.53,1937.68,350.21,349.38,29.41,0000 0000 0000 0000 000000
2015-02-25 05:09:12,0.34,7.93,0.00,21.58,26.93,30.03,4.85,29.18,1016.62,2028.98,1426.98,1784.38,1936.49,349.29,348.77,29.44,0000 0000 0000 0000 000000
2015-02-25 05:14:13,0.35,7.94,0.00,21.59,26.94,30.05,4.86,29.29,1016.63,2028.98,1425.59,1783.35,1935.32,349.64,348.98,29.47,0000 0000 0000 0000 000000
2015-02-25 05:19:15,0.31,7.95,0.00,21.56,26.94,30.06,4.85,29.23,1016.65,2028.99,1424.30,1782.18,1934.07,349.91,349.30,29.50,0000 0000 0000 0000 000000
2015-02-25 05:24:16,0.35,7.96,0.00,21.55,26.95,30.09,4.78,29.16,1016.80,2028.98,1422.95,1781.06,1932.84,349.73,349.13,29.53,0000 0000 0000 0000 000000
2015-02-25 05:29:18,0.37,7.97,0.00,21.55,26.95,30.07,4.89,29.26,1016.77,2028.98,1421.62,1779.94,1931.62,350.16,349.50,29.56,0000 0000 0000 0000 000000
2015-02-25 05:34:19,0.33,7.98,0.00,21.51,26.95,30.05,4.85,29.14,1016.91,2028.96,1420.32,1778.81,1930.41,349.80,349.40,29.59,0000 0000 0000 0000 000000
2015-02-25 05:39:20,0.38,7.99,0.00,21.51,26.95,30.02,4.84,29.22,1017.09,2028.96,1418.82,1777.66,1929.13,349.93,349.57,29.62,0000 0000 0000 0000 000000
2015-02-25 05:44:22,0.34,8.00,0.00,21.44,26.95,29.95,4.82,28.98,1017.10,2028.92,1417.56,1776.56,1927.84,349.51,349.20,29.65,0000 0000 0000 0000 000000
2015-02-25 05:49:23,0.33,8.01,0.00,21.45,26.95,29.96,4.82,28.82,1017.10,2028.95,1416.28,1775.54,1926.68,349.43,349.16,29.68,0000 0000 0000 0000 000000
2015-02-25 05:54:25,0.36,8.02,0.00,21.43,26.95,29.93,4.85,28.89,1017.10,2028.97,1414.88,1774.39,1925.53,349.63,349.50,29.71,0000 0000 0000 0000 000000
2015-02-25 05:59:26,0.34,8.03,0.00,21.41,26.95,29.89,4.90,28.99,1017.10,2028.96,1413.56,1773.31,1924.33,349.84,349.31,29.73,0000 0000 0000 0000 000000
2015-02-25 06:04:27,0.31,8.05,0.00,21.40,26.95,29.94,4.81,28.85,1017.10,2028.97,1412.26,1772.22,1923.10,350.33,350.19,29.76,0000 0000 0000 0000 000000
2015-02-25 06:09:28,0.35,8.06,0.00,21.39,26.95,29.89,4.92,28.89,1017.09,2028.98,1410.91,1771.16,1921.89,350.39,349.92,29.79,0000 0000 0000 0000 000000
2015-02-25 06:14:30,0.35,8.06,0.00,21.43,26.95,29.89,4.79,28.90,1017.09,2028.98,1409.63,1770.07,1920.75,349.76,349.48,29.82,0000 0000 0000 0000 000000
2015-02-25 06:19:31,0.33,8.07,0.00,21.38,26.95,29.90,4.90,28.97,1017.00,2028.98,1408.38,1768.98,1919.65,350.38,350.01,29.85,0000 0000 0000 0000 000000
2015-02-25 06:24:32,0.32,8.08,0.00,21.38,26.95,29.94,4.81,28.93,1017.04,2028.97,1407.09,1767.89,1918.45,350.12,349.73,29.88,0000 0000 0000 0000 000000
2015-02-25 06:29:34,0.36,8.09,0.00,21.41,26.94,29.97,4.86,28.99,1016.87,2028.96,1405.76,1766.79,1917.28,350.33,349.98,29.91,0000 0000 0000 0000 000000
2015-02-25 06:34:35,0.36,8.10,0.00,21.46,26.94,29.95,4.79,29.08,1016.86,2028.96,1404.46,1765.69,1916.00,349.55,349.09,29.94,0000 0000 0000 0000 000000
2015-02-25 06:39:36,0.35,8.11,0.00,21.43,26.94,29.92,4.85,29.05,1017.00,2028.95,1403.03,1764.59,1914.77,349.63,349.27,29.97,0000 0000 0000 0000 000000
2015-02-25 06:44:38,0.35,8.12,0.00,21.39,26.93,29.91,4.84,28.95,1017.00,2028.93,1401.74,1763.47,1913.60,350.15,349.78,30.00,0000 0000 0000 0000 000000
2015-02-25 06:49:39,0.34,8.13,0.00,21.39,26.93,29.89,4.88,29.01,1017.07,2028.94,1400.48,1762.40,1912.42,350.01,349.80,30.03,0000 0000 0000 0000 000000
2015-02-25 06:54:40,0.29,8.15,0.00,21.37,26.93,29.85,4.91,29.01,1016.96,2028.92,1399.14,1761.30,1911.25,350.38,349.95,30.06,0000 0000 0000 0000 000000
2015-02-25 06:59:41,0.37,8.16,0.00,21.40,26.93,29.80,4.84,28.93,1016.73,2028.93,1397.77,1760.22,1909.98,349.83,349.52,30.09,0000 0000 0000 0000 000000
2015-02-25 07:04:43,0.34,8.17,0.00,21.40,26.93,29.86,4.84,28.99,1016.63,2028.92,1396.51,1759.15,1908.77,349.78,349.36,30.12,0000 0000 0000 0000 000000
2015-02-25 07:09:44,0.33,8.18,0.00,21.38,26.93,29.88,4.77,28.97,1016.62,2028.93,1395.22,1758.03,1907.62,349.29,348.89,30.14,0000 0000 0000 0000 000000
2015-02-25 07:14:46,0.35,8.19,0.00,21.40,26.92,29.80,4.91,29.02,1016.62,2028.97,1393.86,1756.96,1906.50,350.25,349.60,30.17,0000 0000 0000 0000 000000
2015-02-25 07:19:47,0.34,8.20,0.00,21.43,26.92,29.83,4.80,28.97,1016.63,2028.96,1392.61,1755.89,1905.33,349.87,349.41,30.20,0000 0000 0000 0000 000000
2015-02-25 07:24:48,0.36,8.21,0.00,21.42,26.92,29.78,4.89,29.04,1016.62,2028.98,1391.32,1754.78,1904.13,349.96,349.57,30.23,0000 0000 0000 0000 000000
2015-02-25 07:29:50,0.35,8.22,0.00,21.39,26.92,29.87,4.91,29.20,1016.62,2028.95,1389.88,1753.69,1902.92,349.99,349.42,30.26,0000 0000 0000 0000 000000
2015-02-25 07:34:51,0.37,8.23,0.00,21.42,26.92,29.88,4.85,29.12,1016.62,2028.98,1388.66,1752.66,1901.72,349.51,349.01,30.29,0000 0000 0000 0000 000000
2015-02-25 07:39:52,0.34,8.24,0.00,21.43,26.92,29.96,4.77,29.12,1016.62,2028.93,1387.28,1751.53,1900.54,349.79,349.29,30.32,0000 0000 0000 0000 000000
2015-02-25 07:44:54,0.34,8.25,0.00,21.40,26.92,29.97,4.87,29.13,1016.62,2028.91,1385.89,1750.37,1899.31,349.91,349.49,30.35,0000 0000 0000 0000 000000
2015-02-25 07:49:55,0.36,8.26,0.00,21.37,26.92,29.88,4.81,28.89,1016.62,2028.97,1384.65,1749.38,1898.14,349.61,349.21,30.38,0000 0000 0000 0000 000000
2015-02-25 07:54:56,0.33,8.27,0.00,21.37,26.92,29.83,4.86,29.06,1016.62,2028.96,1383.43,1748.29,1896.91,350.57,350.06,30.41,0000 0000 0000 0000 000000
2015-02-25 07:59:57,0.34,8.28,0.00,21.39,26.92,29.89,4.85,28.98,1016.65,2028.92,1382.01,1747.15,1895.72,349.98,349.51,30.44,0000 0000 0000 0000 000000
2015-02-25 08:04:59,0.37,8.29,0.00,21.38,26.92,29.80,4.84,29.16,1016.63,2028.97,1380.71,1746.11,1894.53,349.78,349.48,30.47,0000 0000 0000 0000 000000
2015-02-25 08:10:00,0.32,8.30,0.00,21.37,26.92,29.71,4.89,28.98,1016.63,2028.96,1379.48,1745.05,1893.41,350.04,349.64,30.50,0000 0000 0000 0000 000000
2015-02-25 08:15:01,0.31,8.31,0.00,21.38,26.92,29.79,4.80,28.93,1016.62,2028.97,1378.23,1744.02,1892.24,349.39,349.30,30.53,0000 0000 0000 0000 000000
2015-02-25 08:20:03,0.34,8.32,0.00,21.36,26.92,29.81,4.88,29.10,1016.62,2028.98,1376.96,1742.97,1891.12,350.51,350.09,30.55,0000 0000 0000 0000 000000
2015-02-25 08:25:04,0.36,8.33,0.00,21.38,26.92,29.72,4.84,28.88,1016.62,2028.96,1375.72,1741.89,1889.87,350.16,349.76,30.58,0000 0000 0000 0000 000000
2015-02-25 08:30:05,0.37,8.34,0.00,21.33,26.91,29.72,4.80,29.07,1016.62,2028.98,1374.38,1740.80,1888.72,350.23,349.74,30.61,0000 0000 0000 0000 000000
2015-02-25 08:35:07,0.32,8.35,0.00,21.39,26.90,29.77,4.85,29.26,1016.62,2028.97,1373.09,1739.77,1887.63,350.04,349.38,30.64,0000 0000 0000 0000 000000
2015-02-25 08:40:08,0.40,8.36,0.00,21.42,26.90,29.85,4.79,29.18,1016.62,2028.95,1371.72,1738.66,1886.39,349.70,349.22,30.67,0000 0000 0000 0000 000000
2015-02-25 08:45:09,0.31,8.37,0.00,21.36,26.90,29.80,4.83,29.08,1016.62,2028.97,1370.52,1737.68,1885.25,349.67,349.35,30.70,0000 0000 0000 0000 000000
2015-02-25 08:50:11,0.33,8.38,0.00,21.37,26.90,29.76,4.80,29.14,1016.62,2028.97,1369.29,1736.64,1884.11,349.58,348.97,30.73,0000 0000 0000 0000 000000
2015-02-25 08:55:12,0.32,8.39,0.00,21.40,26.90,29.78,4.79,28.92,1016.63,2028.95,1368.03,1735.60,1882.99,349.98,349.50,30.76,0000 0000 0000 0000 000000
2015-02-25 09:00:13,0.35,8.40,0.00,21.37,26.90,29.74,4.91,29.07,1016.62,2028.97,1366.79,1734.63,1881.86,350.54,350.19,30.79,0000 0000 0000 0000 000000
2015-02-25 09:05:15,0.37,8.41,0.00,21.33,26.90,29.75,4.83,28.95,1016.63,2028.96,1365.49,1733.53,1880.69,349.82,349.44,30.82,0000 0000 0000 0000 000000
2015-02-25 09:10:16,0.32,8.42,0.00,21.34,26.89,29.70,4.86,29.07,1016.64,2028.98,1364.29,1732.52,1879.59,350.25,350.02,30.85,0000 0000 0000 0000 000000
2015-02-25 09:15:17,0.35,8.43,0.00,21.29,26.88,29.71,4.94,29.05,1016.62,2028.96,1362.91,1731.44,1878.42,350.27,350.02,30.88,0000 0000 0000 0000 000000
2015-02-25 09:20:19,0.35,8.44,0.00,21.30,26.87,29.65,4.83,28.94,1016.63,2028.98,1361.66,1730.41,1877.29,349.92,349.73,30.91,0000 0000 0000 0000 000000
2015-02-25 09:25:19,0.33,8.45,0.00,21.31,26.87,29.58,4.86,28.98,1016.62,2028.97,1360.43,1729.36,1876.12,350.03,350.10,30.94,0000 0000 0000 0000 000000
2015-02-25 09:30:21,0.31,8.46,0.00,21.32,26.87,29.68,4.88,28.98,1016.66,2028.96,1359.21,1728.36,1874.98,350.29,350.23,30.97,0000 0000 0000 0000 000000
2015-02-25 09:35:22,0.34,8.47,0.00,21.31,26.87,29.73,4.90,29.13,1016.85,2028.97,1357.93,1727.37,1873.84,349.97,349.65,30.99,0000 0000 0000 0000 000000
2015-02-25 09:40:24,0.37,8.48,0.00,21.29,26.87,29.74,4.89,29.14,1016.80,2028.97,1356.65,1726.48,1872.71,350.32,350.13,31.02,0000 0000 0000 0000 000000
2015-02-25 09:45:25,0.32,8.49,0.00,21.28,26.86,29.67,4.87,29.02,1016.69,2028.97,1355.47,1725.50,1871.64,350.17,350.02,31.05,0000 0000 0000 0000 000000
2015-02-25 09:50:26,0.33,8.50,0.00,21.24,26.85,29.60,4.80,28.82,1016.66,2028.98,1354.25,1724.47,1870.50,349.54,349.75,31.08,0000 0000 0000 0000 000000
2015-02-25 09:55:27,0.31,8.51,0.00,21.25,26.85,29.48,4.88,29.05,1016.63,2028.97,1353.04,1723.49,1869.45,350.28,349.82,31.11,0000 0000 0000 0000 000000
2015-02-25 10:00:28,0.35,8.52,0.00,21.29,26.85,29.49,4.86,29.06,1016.79,2028.99,1351.83,1722.47,1868.34,349.84,349.70,31.14,0000 0000 0000 0000 000000
2015-02-25 10:05:29,0.35,8.53,0.00,21.25,26.85,29.37,4.88,29.01,1016.77,2028.98,1350.58,1721.44,1867.22,350.17,350.26,31.17,0000 0000 0000 0000 000000
2015-02-25 10:10:31,0.32,8.54,0.00,21.22,26.85,29.44,4.83,29.10,1016.63,2028.98,1349.36,1720.39,1866.06,349.99,349.67,31.20,0000 0000 0000 0000 000000
2015-02-25 10:15:32,0.31,8.55,0.00,21.23,26.85,29.43,4.83,28.94,1016.62,2028.99,1348.13,1719.46,1864.98,350.15,350.03,31.23,0000 0000 0000 0000 000000
2015-02-25 10:20:33,0.35,8.56,0.00,21.31,26.84,29.43,4.90,29.12,1016.63,2028.99,1346.90,1718.42,1863.89,350.46,350.15,31.26,0000 0000 0000 0000 000000
2015-02-25 10:25:35,0.37,8.57,0.00,21.30,26.83,29.50,4.87,29.20,1016.63,2028.99,1345.66,1717.41,1862.78,349.83,349.78,31.29,0000 0000 0000 0000 000000
2015-02-25 10:30:36,0.33,8.58,0.00,21.29,26.82,29.49,4.85,28.88,1016.62,2028.99,1344.49,1716.43,1861.66,350.09,350.23,31.32,0000 0000 0000 0000 000000
2015-02-25 10:35:37,0.32,8.59,0.00,21.28,26.82,29.53,4.88,28.88,1016.62,2028.99,1343.29,1715.44,1860.59,350.26,349.89,31.35,0000 0000 0000 0000 000000
2015-02-25 10:40:39,0.32,8.60,0.00,21.32,26.82,29.58,4.96,29.21,1016.62,2028.99,1342.16,1714.37,1859.43,350.12,349.86,31.38,0000 0000 0000 0000 000000
2015-02-25 10:45:40,0.30,8.61,0.00,21.26,26.82,29.56,4.83,29.04,1016.63,2028.99,1340.95,1713.43,1858.37,349.73,349.39,31.40,0000 0000 0000 0000 000000
2015-02-25 10:50:41,0.37,8.62,0.00,21.27,26.82,29.56,4.85,29.13,1016.68,2028.99,1339.75,1712.41,1857.28,350.26,349.93,31.43,0000 0000 0000 0000 000000
2015-02-25 10:55:43,0.34,8.63,0.00,21.29,26.82,29.56,4.85,29.19,1016.63,2028.99,1338.54,1711.41,1856.20,349.94,349.86,31.46,0000 0000 0000 0000 000000
2015-02-25 11:00:44,0.32,8.64,0.00,21.31,26.82,29.58,4.84,29.18,1016.62,2028.99,1337.35,1710.39,1855.13,350.45,350.14,31.49,0000 0000 0000 0000 000000
2015-02-25 11:05:45,0.30,8.65,0.00,21.27,26.82,29.57,4.83,29.18,1016.62,2028.99,1336.13,1709.48,1854.18,349.22,348.92,31.52,0000 0000 0000 0000 000000
2015-02-25 11:10:47,0.34,8.66,0.00,21.26,26.81,29.57,4.95,29.09,1016.62,2028.99,1334.92,1708.41,1853.11,350.54,350.34,31.55,0000 0000 0000 0000 000000
2015-02-25 11:15:48,0.33,8.67,0.00,21.27,26.81,29.48,4.87,29.09,1016.62,2028.99,1333.75,1707.48,1852.01,349.94,349.54,31.58,0000 0000 0000 0000 000000
2015-02-25 11:20:49,0.36,8.68,0.00,21.30,26.80,29.46,4.81,29.12,1016.61,2028.99,1332.54,1706.48,1850.90,349.74,349.53,31.61,0000 0000 0000 0000 000000
2015-02-25 11:25:51,0.34,8.69,0.00,21.29,26.80,29.46,4.89,29.29,1016.47,2028.99,1331.30,1705.47,1849.79,349.93,349.71,31.64,0000 0000 0000 0000 000000
2015-02-25 11:30:52,0.34,8.70,0.00,21.28,26.80,29.50,4.84,29.32,1016.30,2028.99,1330.05,1704.46,1848.68,350.16,349.70,31.67,0000 0000 0000 0000 000000
2015-02-25 11:35:52,0.33,8.71,0.00,21.31,26.80,29.50,4.73,29.07,1016.36,2028.99,1328.86,1703.51,1847.66,350.09,349.81,31.70,0000 0000 0000 0000 000000
2015-02-25 11:40:54,0.39,8.72,0.00,21.33,26.80,29.55,4.87,29.26,1016.37,2028.99,1327.59,1702.46,1846.50,349.73,349.29,31.73,0000 0000 0000 0000 000000
2015-02-25 11:45:55,0.29,8.73,0.00,21.32,26.80,29.60,4.87,29.14,1016.55,2028.99,1326.50,1701.51,1845.42,349.92,349.32,31.76,0000 0000 0000 0000 000000
2015-02-25 11:50:56,0.32,8.74,0.00,21.28,26.80,29.59,4.84,29.13,1016.39,2028.99,1325.34,1700.52,1844.38,350.21,349.68,31.78,0000 0000 0000 0000 000000
2015-02-25 11:55:58,0.31,8.75,0.00,21.26,26.80,29.53,4.87,29.13,1016.52,2028.99,1324.16,1699.59,1843.32,349.82,349.59,31.81,0000 0000 0000 0000 000000
2015-02-25 12:00:59,0.34,8.76,0.00,21.25,26.80,29.43,4.87,29.13,1016.55,2028.99,1322.93,1698.58,1842.26,350.13,349.87,31.84,0000 0000 0000 0000 000000
2015-02-25 12:06:00,0.33,8.77,0.00,21.26,26.80,29.43,4.90,29.06,1016.53,2028.99,1321.76,1697.63,1841.19,350.02,349.68,31.87,0000 0000 0000 0000 000000
2015-02-25 12:11:01,0.33,8.78,0.00,21.24,26.80,29.35,4.86,28.89,1016.52,2028.99,1320.63,1696.68,1840.13,349.98,349.76,31.90,0000 0000 0000 0000 000000
2015-02-25 12:16:03,0.30,8.79,0.00,21.20,26.80,29.34,4.88,29.00,1016.32,2029.00,1319.56,1695.75,1839.12,350.11,349.84,31.93,0000 0000 0000 0000 000000
2015-02-25 12:21:04,0.32,8.80,0.00,21.20,26.79,29.24,4.83,29.14,1016.53,2029.00,1318.40,1694.81,1838.07,349.93,349.76,31.96,0000 0000 0000 0000 000000
2015-02-25 12:26:05,0.32,8.81,0.00,21.22,26.79,29.34,4.85,29.06,1016.43,2029.01,1317.26,1693.83,1836.99,349.77,349.46,31.99,0000 0000 0000 0000 000000
2015-02-25 12:31:07,0.29,8.82,0.00,21.22,26.79,29.32,4.82,29.05,1016.32,2029.00,1316.18,1692.94,1836.01,349.94,349.55,32.02,0000 0000 0000 0000 000000
2015-02-25 12:36:08,0.37,8.83,0.00,21.24,26.78,29.31,4.80,29.26,1016.29,2029.01,1314.87,1691.96,1834.99,350.12,349.89,32.05,0000 0000 0000 0000 000000
2015-02-25 12:41:09,0.34,8.84,0.00,21.26,26.77,29.24,4.90,29.28,1016.40,2029.01,1313.74,1690.96,1833.88,350.20,349.94,32.08,0000 0000 0000 0000 000000
2015-02-25 12:46:11,0.32,8.85,0.00,21.28,26.77,29.17,4.80,29.21,1016.14,2029.01,1312.59,1690.07,1832.88,349.80,349.16,32.11,0000 0000 0000 0000 000000
2015-02-25 12:51:12,0.31,8.86,0.00,21.28,26.77,29.19,4.75,29.23,1016.14,2029.00,1311.58,1689.18,1831.86,349.19,348.67,32.14,0000 0000 0000 0000 000000
2015-02-25 12:56:14,0.34,8.87,0.00,21.31,26.77,29.39,4.86,29.34,1016.11,2029.01,1310.42,1688.23,1830.80,350.15,349.66,32.17,0000 0000 0000 0000 000000
2015-02-25 13:01:15,0.31,8.88,0.00,21.34,26.77,29.52,4.87,29.36,1016.11,2029.00,1309.23,1687.26,1829.83,350.12,349.77,32.20,0000 0000 0000 0000 000000